Location: Alfortville
(48.8058°N, 2.4204°E)
Time: 03:33:04
(UTC+00:00)

FENGYUN 1C DEB - Pass Details

Date: 15 December 2023
Orbit: 784 x 861 km, 99.1° (Epoch: 22 February)

Event Time Altitude Azimuth Distance (km) Brightness Sun altitude
Rises 17:21:37 0° 6° (N) 3,394 ? -13.6°
Reaches altitude 10° 17:24:23 10° 353° (N) 2,468 ? -14.0°
Maximum altitude 17:28:35 23° 302° (WNW) 1,718 ? -14.7°
Drops below altitude 10° 17:32:51 10° 251° (WSW) 2,489 ? -15.3°
Sets 17:35:40 0° 238° (WSW) 3,428 ? -15.8°
